GXIBA-1

Last updated on Sun Jun 21 2026 00:02:11 GMT+0000 (Coordinated Universal Time)

1 67685U 98067YB 26171.29606699 .00051927 00000+0 58681-3 0 9990 2 67685 51.6270 278.0693 0009957 227.5676 132.4477 15.61883659 20771
UTC large
Height (km)
Speed (km/s)
/
Latitude / Longitude
Inclination (degrees)
Orbital Period (minutes)
Azimuth
Elevation
Range (km)
Doppler Factor

Next 0 passes for location: London (51.5072 / 0.1276)

No passes found over London.
GXIBA-1